Location: La Trinit�
(48.1620°N, 3.4512°W)
Time: 16:43:52
(UTC+00:00)

Cosmos 2084 Rocket - Pass Details

Date: 08 May 2021
Orbit: 521 x 659 km, 62.8° (Epoch: 24 June)

Event Time Altitude Azimuth Distance (km) Brightness Sun altitude
Rises 23:06:05 0° 320° (NW) 2,761 8.0 -22.9°
Reaches altitude 10° 23:08:21 10° 327° (NNW) 1,884 7.0 -23.0°
Maximum altitude 23:12:27 45° 41° (NE) 808 4.3 -23.2°
Enters shadow 23:13:28 38° 79° (E) 918 4.3 -23.3°
